Location: Kuppenheim
(48.8299°N, 8.2568°E)
Time: 14:13:55
(UTC+00:00)

Cosmos 1898 Rocket - Pass Details

Date: 21 October 2021
Orbit: 753 x 783 km, 74.0° (Epoch: 08 December)

Event Time Altitude Azimuth Distance (km) Brightness Sun altitude
Rises 17:14:31 0° 256° (WSW) 3,243 9.0 -8.7°
Reaches altitude 10° 17:17:49 10° 278° (W) 2,327 7.5 -9.3°
Maximum altitude 17:21:04 16° 316° (NW) 1,935 6.1 -9.8°
Drops below altitude 10° 17:24:21 10° 354° (N) 2,345 6.0 -10.3°
Sets 17:27:43 0° 16° (NNE) 3,281 6.6 -10.9°
